weather.gov     
National Weather Service

Regional Weather Roundup
NWS Homepage
This page is being discontinued on March 12, 2014.
The same data is available at this site. Please update your bookmarks.
Thank you, and we apologize for the inconvenience.
Please send an email to SR-SRH.Webmaster@noaa.gov with any concerns.


Current Version
Previous Version:    01  02  03  04  05  06  07  08  09  10  11  12  13  14  15  16  17  18  19  20  21  22  23  24  25  26  27  28  29  30  
   31  32  33  34  35  36  37  38  39  40  41  42  43  44  45  46  47  48  49  50  51  52  53  54  55  56  57  58  59  60  
[Printable]
504
ASUS41 KCLE 222210
RWRCLE
OHIO REGIONAL WEATHER ROUNDUP
NATIONAL WEATHER SERVICE WILMINGTON, OH
600 PM EDT WED OCT 22 2014

NOTE: "FAIR" INDICATES FEW OR NO CLOUDS BELOW 12,000 FEET WITH NO
SIGNIFICANT WEATHER AND/OR OBSTRUCTIONS TO VISIBILITY.

OHZ001>008-015>018-024>027-034-035-043-044-222300-
   NORTHWEST OHIO

CITY           SKY/WX    TMP DP  RH WIND       PRES   REMARKS
DEFIANCE       MOCLDY    50  39  66 NE5       30.30F
FINDLAY        MOCLDY    52  40  63 NW5       30.27F
TOLEDO EXPRESS MOCLDY    52  40  63 W7        30.28S
TOLEDO METCALF PTCLDY    54  40  59 NW3       30.28F
LIMA           CLOUDY    49  40  71 N6        30.28F
$$

OHZ009>014-019>023-028>033-038-089-222300-
   NORTHEAST OHIO

CITY           SKY/WX    TMP DP  RH WIND       PRES   REMARKS
CLE-HOPKINS    MOCLDY    50  41  71 N7        30.27S
CLE-LAKEFRONT  CLOUDY    53  42  66 N10       30.24S
CUY CO. ARPT   MOCLDY    52  45  76 N8        30.25S
LORAIN-ELYRIA  PTCLDY    49  42  77 N3        30.26S
ASHTABULA      CLOUDY    49  41  74 CALM      30.23F
AKRON-CANTON   CLOUDY    50  42  74 N10G17    30.22S
WOOSTER        CLOUDY    49  41  74 N7        30.25S
MANSFIELD      CLOUDY    49  41  74 N7        30.25S
YOUNGSTOWN     MOCLDY    48  42  80 N9        30.21S
$$

OHZ042-051>053-060>062-070>072-077>081-222300-
  SOUTHWEST OHIO

CITY           SKY/WX    TMP DP  RH WIND       PRES   REMARKS
CINC-COVINGTON MOCLDY    52  39  61 N6        30.26S
CINC-LUNKEN    CLOUDY    52  41  66 NE7       30.28S
HAMILTON       CLOUDY    53  41  63 E6        30.28S
DAYTON         CLOUDY    50  41  71 NE9       30.28F
WRIGHT-PAT AFB CLOUDY    50  41  72 NE7       30.27S
DAYTON GENERAL CLOUDY    50  42  74 NE7       30.26F
WILMINGTON     CLOUDY    49  40  71 N14       30.26S
$$

OHZ036-037-039>041-045>050-054>059-063>069-073>076-082>088-222300-
  CENTRAL AND SOUTHEAST OHIO

CITY           SKY/WX    TMP DP  RH WIND       PRES   REMARKS
COLUMBUS       CLOUDY    50  39  66 N9        30.24F
OSU AIRPORT    CLOUDY    50  41  71 NW8       30.25F
BOLTON FIELD   CLOUDY    48  43  81 NW9       30.26S
RICKENBACK AFB CLOUDY    49  40  70 N8        30.25R
NEWARK         CLOUDY    50  39  66 N6        30.24S
MARION         CLOUDY    50  41  71 NW10      30.26S
LANCASTER      CLOUDY    50  41  71 N5        30.24F
ZANESVILLE     CLOUDY    49  41  74 N8        30.23R
NEW PHILLY     CLOUDY    51  41  68 NW9       30.22S
$$




U.S. Dept. of Commerce
NOAA National Weather Service
1325 East West Highway
Silver Spring, MD 20910
E-mail: w-nws.webmaster@noaa.gov
Page last modified: May 16, 2007
NATIONAL WEATHER SERVICE: for Safety, for Work, for Fun - FOR LIFE